#timestamp,LO_Frequency,Hit,StdDev 
1506063615.1,286047008.6,Y
1506063635.9,286047005.3,P
1506063655.7,286047006.8,P
1506063675.5,286047009.4,P
1506063695.4,286047009.5,Y
1506063715.2,286047002.8,P
1506063735.0,286047000.0,N
1506063735.9,286047000.0,N
1506063755.8,286047002.4,N
1506063775.6,286047004.5,N
1506063795.4,286047007.4,Y
1506063815.3,286047004.5,P
1506063835.1,286047002.6,N
1506063836.0,286047002.6,N
1506063855.8,286047002.8,Y
1506063875.7,286046999.6,P
1506063895.5,286046997.0,N
1506063915.3,286046992.9,N
1506063935.2,286046994.3,N
1506063955.9,286046991.3,N
1506063975.7,286046992.4,N
1506063995.6,286046989.0,N
1506064015.4,286046990.0,N
1506064035.2,286046992.6,N
1506064055.0,286046992.4,N
1506064056.0,286046992.4,N
1506064075.8,286046988.6,N
1506064095.6,286046988.8,N
1506064115.5,286046984.4,Y
1506064135.3,286046988.5,P
1506064155.1,286046989.6,P
1506064175.8,286046993.1,P
1506064195.7,286046993.7,Y
1506064215.5,286047003.2,P
1506064235.3,286047003.8,N
1506064255.2,286046999.8,N
1506064275.0,286047000.6,N
1506064275.9,286047000.6,N
1506064295.7,286046996.9,N
1506064315.6,286046999.6,N
1506064335.4,286046999.0,N
1506064355.2,286047001.6,N
1506064375.1,286047005.9,N
1506064376.0,286047005.9,N
1506064395.8,286047007.4,N
1506064415.6,286047001.3,N
1506064435.5,286047001.9,N
1506064455.3,286046998.2,N
1506064475.1,286047002.1,N
1506064495.9,286047000.9,N
1506064515.7,286047004.1,N
1506064535.5,286047002.8,N
1506064555.3,286046998.3,N
1506064575.2,286047002.2,N
1506064595.0,286047004.5,N
1506064595.9,286047004.5,N
1506064615.7,286047007.1,N
1506064635.6,286047006.1,N
1506064655.4,286047009.0,N
1506064675.2,286047006.1,N
1506064695.1,286047006.6,N
1506064696.0,286047006.6,N
1506064715.8,286047006.1,N
1506064735.6,286047010.7,Y
1506064755.5,286047002.4,P
1506064775.3,286047000.3,N
1506064795.1,286047002.5,N
1506064815.9,286047001.3,N
1506064835.7,286046999.2,N
1506064855.5,286046999.2,N
1506064875.3,286046999.2,N
1506064895.2,286046999.3,N
1506064915.0,286046997.3,N
1506064915.9,286046997.3,N
1506064935.7,286046998.3,N
1506064955.6,286047001.7,N
1506064975.4,286047001.6,N
1506064995.2,286046999.1,N
1506065015.1,286046996.8,N
1506065016.0,286046996.8,N
1506065035.8,286047002.3,N
1506065055.6,286047004.4,N
1506065075.5,286047000.3,N
1506065095.3,286046999.9,N
1506065115.1,286047003.8,N
1506065135.9,286047001.5,N
1506065155.7,286047002.5,N
1506065175.5,286047002.6,N
1506065195.4,286047002.0,N
1506065215.2,286047000.8,N
1506065235.0,286047001.9,N
1506065235.9,286047001.9,N
1506065255.7,286047000.1,N
1506065275.6,286047002.5,N
1506065295.4,286047005.4,N
1506065315.2,286047001.6,N
1506065335.1,286047001.3,N
1506065336.0,286047001.3,N
1506065355.8,286047001.2,N
1506065375.6,286046999.1,N
1506065395.5,286046998.1,N
1506065415.3,286047001.1,N
1506065435.1,286046998.3,N
1506065455.9,286046995.0,N
1506065475.7,286046996.9,N
1506065495.5,286046996.7,N
1506065515.4,286046995.0,N
1506065535.2,286046996.1,N
1506065555.0,286046995.3,N
1506065555.9,286046995.3,N
1506065575.8,286046996.3,N
1506065595.6,286046994.2,N
1506065615.4,286046991.8,N
1506065635.2,286046994.4,N
1506065655.1,286046991.9,N
1506065656.0,286046991.9,N
1506065675.8,286046993.2,N
1506065695.6,286046993.2,N
1506065715.5,286046995.9,N
1506065735.3,286046990.5,N
1506065755.1,286046992.7,N
1506065775.9,286046993.6,N
1506065795.7,286046992.9,N
1506065815.5,286046992.9,N
1506065835.4,286046996.3,N
1506065855.2,286046992.5,N
1506065875.0,286046991.8,N
1506065875.9,286046991.8,N
1506065895.8,286046993.0,N
1506065915.6,286046989.9,Y
1506065935.4,286046991.9,P
1506065955.3,286046996.4,N
1506065975.1,286046991.7,P
1506065976.0,286046991.7,Y
1506065995.8,286046997.6,P
1506066015.7,286047002.2,N
1506066035.5,286047003.9,N
1506066055.3,286046998.7,N
1506066075.2,286047000.2,N
1506066095.9,286047003.7,N
1506066115.7,286047006.3,N
1506066135.6,286047006.8,N
1506066155.4,286047008.4,N
1506066175.2,286047008.4,N
1506066195.1,286047003.9,N
1506066196.0,286047003.9,N
1506066215.8,286047001.5,N
1506066235.6,286047003.0,N
1506066255.4,286047001.3,N
1506066275.3,286047003.1,N
1506066295.1,286047003.3,N
1506066315.8,286047009.6,N
1506066335.7,286047004.8,N
1506066355.5,286047004.8,N
1506066375.3,286047008.7,N
1506066395.2,286047007.7,N
1506066415.9,286047008.6,N
1506066435.7,286047008.6,N
1506066455.6,286047005.7,N
1506066475.4,286046998.5,N
1506066495.2,286046999.6,N
1506066515.1,286047005.9,N
1506066516.0,286047005.9,N
1506066535.8,286047004.7,N
1506066555.6,286047005.4,N
1506066575.4,286047004.7,N
1506066595.3,286047005.0,N
1506066615.1,286047003.2,N
1506066635.8,286047001.9,N
1506066655.7,286047002.4,N
1506066675.5,286046999.8,N
1506066695.3,286047006.8,N
1506066715.2,286047004.8,N
1506066735.9,286047004.6,N
1506066755.7,286047007.2,N
1506066775.6,286047004.9,N
1506066795.4,286047004.8,N
1506066815.2,286047005.9,N
1506066835.1,286047007.5,N
1506066836.0,286047007.5,N
1506066855.8,286047002.9,N
1506066875.6,286047001.3,N
1506066895.5,286047003.9,N
1506066915.3,286047002.4,N
1506066935.1,286047000.7,N
1506066955.9,286047000.9,N
1506066975.7,286046998.1,N
1506066995.5,286047002.1,N
1506067015.3,286047003.7,N
1506067035.2,286047005.5,N
1506067055.0,286047003.2,N
1506067055.9,286047003.2,N
1506067075.7,286047004.8,N
1506067095.6,286047008.1,Y
1506067115.4,286047003.8,P
1506067135.2,286047003.8,P
1506067155.1,286047003.4,P
1506067156.0,286047003.4,Y
1506067175.8,286046998.7,P
1506067195.6,286046997.1,N
